Location: Veytaux
(46.4185°N, 6.9320°E)
Time: 08:37:41
(UTC+00:00)

USA 229 - Pass Details

Date: 27 May 2022
Orbit: 938 x 1274 km, 63.4° (Epoch: 24 May)

Event Time Altitude Azimuth Distance (km) Brightness Sun altitude
Rises 00:16:39 0° 319° (NW) 3,978 7.2 -21.5°
Reaches altitude 10° 00:19:17 10° 316° (NW) 3,061 6.5 -21.4°
Maximum altitude 00:26:34 64° 238° (WSW) 1,331 3.9 -21.1°
Enters shadow 00:30:48 29° 166° (SSE) 2,110 4.7 -20.9°
